Delta Virtual Airport Information Service

Cleveland Hopkins International Airport

ICAO: KCLE Country: United States
Latitude: 41.4103 Longitude: -81.8539
Latest Arrival : DAL1459 (1A) (KATL-KCLE) Latest Departure : SKW3600 (1A) (KCLE-KMSP)


WX CaptureLIVE
Data provided by noaa.gov | Fetched at 23:25:58

METAR : KCLE 120351Z 36008KT 10SM BKN075 08/01 A3032 RMK AO2 SLP288 T00780011

TAF : KCLE 120256Z 1203/1306 33005KT P6SM FEW070


Runway Data for KCLE
Data provided by openaviationdata.com

Runway ID Mag Var Hdg Length Elevation Surface ILS Freq ILS Id ILS Slope
06L -7 56° 8995 ft 791 ft Concrete 111.55 ILIZ 3
06R -7 56° 8993 ft 791 ft Concrete 111.9 ICLE 3
06C -7 56° 7091 ft 791 ft Concrete -- -- --
10 -7 100° 6008 ft 791 ft Asphalt -- -- --
24L -7 236° 8993 ft 791 ft Concrete 109.9 IHPI 3
24R -7 236° 8995 ft 791 ft Concrete 111.55 IPVY 3
24C -7 236° 7091 ft 791 ft Concrete -- -- --
28 -7 280° 6008 ft 791 ft Asphalt 110.7 IPXP 3

Cleveland Hopkins International Airport, United States
Use only for reference purposes



Not for navigational purposes.